RH
46 49 52 53 53 52 52 52 54 56 57 59 59 56 50 40 29 22 22 27 33 38 43 47 44 38 35 31 28 24 22 22 25 29 32 36 40 44 48 52 57 60
49 50 51 54 54 52 51 50 50 51 54 56 58 58 54 48 40 31 23 21 27 34 41 45 42 35 31 28 25 23 21 21 23 27 30 34 37 40 44 49 53 57
53 54 54 53 56 56 55 54 51 48 48 50 54 56 54 49 45 40 33 25 22 28 37 43 41 33 27 25 24 22 21 21 22 26 29 32 35 38 42 46 50 55
57 55 57 56 57 58 58 59 57 52 48 46 47 50 50 48 45 43 39 33 26 23 28 37 40 36 28 24 23 21 20 20 21 24 27 30 32 36 40 44 48 53
70 63 61 61 60 59 60 61 62 61 55 49 45 44 43 43 42 40 38 36 32 25 22 25 31 34 31 26 22 21 20 20 20 22 25 28 30 33 36 40 44 49
72 70 68 67 65 61 60 60 61 64 63 58 51 44 40 38 36 34 34 33 33 30 24 21 22 26 29 28 24 21 20 19 20 21 23 25 27 30 32 35 39 44
53 55 59 64 67 69 69 65 60 59 59 58 56 50 42 37 33 31 30 28 28 29 28 24 21 20 24 28 27 25 22 20 19 19 21 23 25 28 30 32 34 37
46 45 47 51 57 68 75 72 63 56 53 52 53 53 48 41 36 33 31 29 26 25 26 26 24 21 20 22 26 28 28 26 23 20 19 19 21 23 26 29 32 35
54 51 51 50 49 54 60 62 60 58 56 54 51 50 50 48 44 40 37 34 30 25 24 24 25 24 22 20 20 22 26 29 29 28 25 24 24 23 23 24 26 29
62 57 57 57 56 55 56 58 59 58 58 57 53 49 49 49 49 48 47 43 38 32 28 25 24 24 25 24 21 19 20 22 23 24 25 26 27 27 26 26 25 25
68 66 64 62 63 64 65 66 66 64 61 59 54 49 48 49 49 51 54 55 51 43 36 32 28 24 23 23 25 25 24 24 24 23 24 25 26 27 25 25 25 26
82 82 81 77 76 77 78 77 74 72 72 69 65 56 49 47 47 47 52 59 61 57 49 42 36 32 28 24 23 25 27 30 31 31 34 38 40 39 35 31 29 27
94 99 98 93 93 96 96 93 86 81 77 74 75 73 64 54 50 48 49 51 55 57 55 50 44 39 36 31 25 23 24 27 28 28 31 37 41 40 39 40 40 39
92 100 102 102 103 103 101 99 98 95 88 80 78 82 79 68 58 53 53 51 49 50 51 52 50 46 42 39 35 31 29 29 30 28 27 29 32 33 31 32 34 36
84 87 93 102 105 102 96 95 100 104 103 96 90 88 86 79 70 61 57 54 51 50 50 50 52 53 50 46 43 40 38 38 39 36 32 30 31 31 30 28 27 27
84 83 93 102 103 102 98 94 98 104 106 105 102 99 94 87 81 74 68 61 55 54 55 53 52 55 57 56 52 46 42 41 43 45 44 43 41 39 37 35 32 29
90 89 98 102 100 101 102 99 97 98 104 108 105 102 102 98 92 89 88 82 74 71 72 68 60 54 57 60 55 48 43 39 38 41 44 46 47 47 46 47 45 41
85 86 95 102 102 100 100 101 99 97 103 108 104 98 100 104 100 97 97 92 85 85 90 93 86 70 60 60 57 47 38 33 29 30 33 37 40 42 45 47 48 50
67 68 75 85 96 100 100 101 101 101 102 104 104 100 100 104 104 102 100 90 77 76 85 96 101 90 69 59 57 49 37 32 33 30 26 27 31 35 38 42 44 45
71 69 67 68 75 85 95 100 98 98 101 101 101 102 103 103 97 88 86 80 68 68 76 83 92 94 78 60 55 51 41 38 44 42 30 23 25 26 28 37 46 48
90 88 83 75 69 70 79 89 91 94 100 101 99 100 102 98 89 78 74 74 71 70 72 73 76 83 83 76 72 70 60 50 51 54 43 30 26 27 29 37 50 60
98 97 94 89 85 79 76 80 88 95 102 101 96 99 102 99 96 94 91 91 91 88 83 79 74 72 76 81 85 89 88 78 67 60 50 38 32 31 34 39 47 60
95 97 100 97 95 92 83 80 87 95 102 101 93 92 97 100 100 100 98 98 101 101 99 94 85 75 73 79 85 90 96 96 80 61 48 41 36 32 34 38 44 53
98 96 98 99 100 98 91 90 91 88 89 94 94 94 98 100 100 99 99 100 102 103 102 101 99 93 90 91 91 89 94 94 79 59 47 41 37 34 35 38 38 41
101 96 90 87 84 73 65 70 76 76 79 87 92 97 101 100 100 101 97 92 96 100 99 99 101 98 96 94 85 79 86 90 82 69 55 43 39 38 39 39 37 36
100 99 90 75 57 47 57 72 75 76 87 93 90 93 100 100 99 103 98 82 75 83 95 104 103 93 88 87 77 68 71 79 84 85 72 52 44 44 43 43 43 43
Wind_Speed
19 20 21 21 21 22 23 24 25 26 27 28 30 31 32 32 31 30 28 26 25 24 23 24 24 23 22 22 23 24 25 26 26 26 26 25 25 25 25 25 25 25
16 17 19 20 20 21 22 22 24 25 25 26 27 28 30 31 31 30 28 27 25 24 23 23 24 23 22 22 22 23 24 25 25 24 24 24 24 23 23 23 23 22
13 15 16 17 18 19 20 21 22 23 24 24 25 25 27 28 30 30 29 27 25 24 23 22 23 23 22 21 22 22 23 24 24 23 23 23 22 22 22 21 21 20
11 12 13 14 15 16 18 19 20 21 21 22 23 23 24 25 27 28 28 27 26 24 22 21 21 21 21 21 20 20 21 22 22 22 22 21 21 20 20 20 19 18
10 10 10 11 12 13 15 16 17 18 19 20 21 21 22 23 24 25 26 26 25 24 22 20 19 19 19 19 19 19 19 19 20 20 20 19 19 19 18 18 17 17
10 9 9 9 9 11 12 13 14 15 16 17 18 19 20 20 21 22 23 23 24 23 22 21 19 18 18 18 18 17 17 17 17 17 17 17 17 16 16 16 16 15
5 6 7 7 7 8 9 10 11 11 12 13 14 16 17 17 18 18 19 20 20 21 21 21 19 18 17 17 16 16 16 15 15 15 14 14 14 14 14 13 14 14
1 1 2 4 5 5 6 6 7 8 9 10 11 12 13 13 14 15 15 16 17 17 18 19 19 18 17 16 15 15 14 14 13 13 12 12 11 11 11 11 11 11
6 5 3 1 0 1 1 2 4 5 6 7 8 8 9 10 10 11 12 12 12 13 14 16 16 17 17 16 15 14 13 12 11 11 10 9 9 8 8 8 8 8
10 8 7 6 5 4 2 1 1 2 3 3 4 5 5 6 7 7 8 9 9 9 10 11 13 14 15 15 15 14 13 12 10 9 8 8 6 5 5 5 5 5
13 11 10 10 9 8 7 5 4 3 3 3 3 3 3 3 4 4 4 5 5 6 6 7 8 9 10 11 13 13 12 11 10 10 9 8 7 5 4 3 2 2
16 15 14 13 12 12 11 10 8 7 7 6 6 6 5 4 3 3 2 1 1 1 2 3 3 4 4 5 7 8 9 9 8 9 8 8 7 6 5 3 2 1
18 18 17 17 16 15 15 14 13 12 11 10 9 9 8 8 6 5 4 4 3 2 2 2 1 1 0 0 1 3 5 5 5 6 6 6 5 5 5 5 4 3
21 20 20 20 20 19 18 18 17 16 15 14 12 12 12 12 11 9 8 7 6 5 5 5 5 5 4 3 3 2 1 1 2 2 2 3 3 3 4 5 5 5
25 23 23 23 23 23 22 21 20 19 19 18 16 15 14 14 14 13 12 10 9 8 8 8 8 7 7 6 6 5 5 4 3 3 4 4 4 5 4 4 5 6
28 27 26 26 26 26 25 24 23 22 22 22 20 18 17 17 17 17 15 14 12 12 11 11 11 10 10 10 9 8 8 7 6 6 6 7 8 8 9 9 9 9
31 30 29 27 27 27 28 28 27 26 24 23 22 21 20 20 20 20 19 18 17 17 16 16 15 14 13 13 12 10 9 8 7 7 8 9 10 11 12 13 14 13
35 33 31 30 28 27 28 29 29 28 27 25 23 22 23 23 23 23 23 23 22 22 21 20 20 19 18 17 15 13 10 9 8 8 9 10 11 12 13 15 16 17
37 35 34 33 31 29 28 28 29 29 30 29 28 26 26 26 26 26 26 26 25 24 24 23 23 23 23 21 19 16 14 11 9 9 11 12 13 14 15 16 17 18
40 39 38 37 35 34 33 31 30 29 30 31 33 33 30 29 29 29 28 27 26 25 25 25 25 25 25 24 22 20 17 15 14 14 14 14 15 16 17 17 18 18
42 42 42 42 40 38 37 36 33 33 33 34 36 36 34 32 31 31 31 30 29 29 29 29 28 27 26 27 26 24 22 20 19 19 19 18 17 17 18 18 18 18
43 44 43 42 42 40 40 40 37 36 37 37 37 36 36 36 35 34 34 33 32 31 31 32 32 31 29 29 30 28 26 24 24 23 22 21 20 19 19 19 19 19
46 46 42 40 41 41 41 42 42 42 42 42 41 39 38 40 40 39 38 38 36 34 33 34 35 36 35 35 35 34 31 28 27 25 24 23 22 20 20 21 21 21
48 49 48 46 45 44 43 43 45 47 45 44 45 43 41 42 42 42 43 43 42 40 38 38 38 40 40 40 39 38 37 34 31 27 26 25 24 22 22 23 24 24
50 53 56 55 53 52 52 52 52 52 49 46 47 47 46 46 45 44 45 46 46 44 43 42 43 44 45 44 43 41 41 40 37 33 30 29 27 26 25 26 26 27
51 55 59 60 57 57 59 58 57 56 55 53 53 52 51 50 49 48 49 49 49 48 45 45 46 46 47 49 50 49 47 45 43 40 37 35 33 31 29 29 29 30
Wind_Direction
74 73 72 71 71 71 71 71 71 72 72 72 70 69 66 64 65 71 77 82 85 87 90 91 95 98 101 103 106 108 110 112 111 109 107 106 104 103 102 101 101 103
77 74 73 72 71 70 70 71 70 70 70 71 70 69 67 65 63 64 70 76 81 85 89 92 96 100 103 105 107 108 110 112 112 110 108 107 106 106 105 103 103 104
86 78 75 73 71 70 69 69 69 70 70 70 70 68 67 66 64 63 64 69 75 82 87 92 96 101 104 107 108 109 110 112 113 113 111 109 108 108 107 106 104 104
103 90 81 75 72 71 71 69 68 68 68 68 68 68 66 65 65 64 63 65 69 76 84 90 95 100 104 107 108 110 112 113 115 114 113 112 111 109 108 107 106 105
113 104 94 86 80 76 74 72 69 67 67 66 65 65 64 63 64 64 63 64 66 71 78 85 92 98 102 106 108 110 112 115 117 116 115 114 112 112 110 110 110 109
106 104 100 98 96 90 80 73 70 68 67 65 64 63 62 60 60 61 61 62 65 68 73 79 86 94 100 105 108 110 111 114 118 119 118 116 115 114 114 113 114 114
106 101 97 97 103 106 95 77 67 66 65 63 64 63 62 60 58 57 57 58 60 64 70 75 80 87 95 101 107 110 111 113 117 120 121 120 120 118 117 115 114 114
229 134 100 94 95 102 100 77 65 66 62 56 58 60 61 61 60 58 57 55 55 58 62 68 74 81 87 96 104 109 112 115 118 122 125 126 125 123 121 119 117 117
262 265 267 259 160 86 77 58 52 57 53 48 45 46 51 55 58 61 60 58 55 52 54 58 64 72 79 87 96 105 110 114 119 122 125 127 128 129 130 130 130 126
263 266 271 274 275 277 279 294 342 5 9 15 21 25 33 39 44 53 60 62 59 55 53 53 56 62 70 78 88 96 101 107 111 111 111 112 114 118 127 137 145 146
261 266 270 274 278 279 277 276 278 287 292 298 309 326 348 6 16 27 46 58 60 57 55 55 55 58 64 74 84 91 94 94 97 98 100 101 100 96 94 98 119 147
263 267 270 272 276 280 281 280 276 271 267 270 275 280 281 287 308 319 325 6 76 77 68 63 62 54 56 70 80 87 87 82 82 88 92 92 89 87 83 74 60 34
260 265 269 272 274 276 278 277 275 272 270 270 271 271 267 266 268 270 264 259 250 234 223 209 197 196 318 29 61 75 78 71 64 71 76 74 70 64 62 60 52 39
257 261 266 268 270 271 272 274 274 273 273 272 272 270 266 262 260 258 256 254 257 259 250 240 232 226 231 235 246 265 299 10 10 9 17 29 34 34 33 31 27 21
258 260 263 265 267 269 270 271 271 273 274 273 271 270 267 263 260 257 256 255 257 263 263 258 252 246 241 240 241 246 254 265 280 289 296 304 312 315 319 329 337 338
256 257 261 264 266 268 269 269 268 269 271 270 270 269 266 263 260 259 259 260 261 264 265 264 260 254 249 247 245 244 245 253 263 272 278 286 294 297 298 299 301 303
253 254 257 259 261 264 266 267 265 265 266 266 266 268 267 263 260 258 259 263 266 268 269 267 261 255 249 246 246 247 251 259 266 270 272 277 283 288 291 293 293 292
251 252 253 254 256 259 261 262 263 262 262 262 264 267 268 265 261 258 258 260 263 267 269 269 265 259 251 247 246 248 254 264 274 280 279 278 279 282 283 283 285 285
251 252 252 252 253 253 254 258 261 261 261 262 265 267 268 266 261 258 258 259 261 264 266 267 266 261 254 250 250 250 249 254 267 281 285 284 285 289 288 286 283 282
254 254 254 253 253 252 252 254 258 262 263 264 266 267 267 265 261 259 260 261 264 266 265 262 262 259 253 249 249 250 249 249 260 275 282 285 289 295 297 296 292 287
257 257 256 254 253 253 253 253 254 259 263 264 266 267 268 265 262 261 262 263 263 264 261 257 255 254 251 249 248 248 248 248 253 264 274 281 288 294 297 298 296 293
256 258 258 257 255 255 255 256 256 255 255 256 258 262 265 264 260 258 259 259 259 260 260 258 255 253 252 251 250 250 248 248 250 258 269 280 285 290 294 295 296 295
253 257 257 256 256 255 256 257 256 253 249 249 251 255 259 261 260 257 256 256 257 259 260 261 259 257 255 254 255 253 251 250 252 257 268 278 283 288 292 291 291 293
248 250 250 250 252 253 253 252 251 250 248 246 248 251 251 253 255 256 255 255 255 256 257 259 260 259 258 257 257 257 254 253 254 258 265 271 277 281 284 285 286 288
245 244 246 249 252 255 255 253 252 253 251 247 246 248 248 249 250 252 253 253 253 254 255 257 257 258 260 260 261 262 260 257 257 259 263 267 271 273 276 279 283 285
244 244 246 248 251 254 256 255 254 255 254 250 247 246 246 248 250 252 252 251 251 251 253 253 254 255 258 260 261 264 265 262 259 259 262 267 268 269 271 274 278 280